Location: Unspecified
(0.0000°N, 0.0000°E)
Time: 06:34:51
(UTC+00:00)

Hubble Space Telescope - Pass Details

Date: 14 January 2018
Orbit: 537 x 541 km, 28.5° (Epoch: 20 January)

Event Time Altitude Azimuth Distance (km) Brightness Sun altitude
Rises 20:35:36 0° 259° (W) 2,672 5.3 -33.8°
Reaches altitude 10° 20:38:05 10° 271° (W) 1,781 4.1 -34.3°
Enters shadow 20:38:32 12° 275° (W) 1,634 3.8 -34.4°
